Date,TemperatureHighF,TemperatureAvgF,TemperatureLowF,DewpointHighF,DewpointAvgF,DewpointLowF,HumidityHigh,HumidityAvg,HumidityLow,PressureMaxIn,PressureMinIn,WindSpeedMaxMPH,WindSpeedAvgMPH,GustSpeedMaxMPH,PrecipitationSumIn
2013-10-1,78.6,64.6,53.8,51.8,34.3,22.5,82,36,20,29.82,29.67,17,4,20,0.00
2013-10-2,81.1,61.7,46.0,28.6,22.7,16.1,43,23,14,30.02,29.82,8,1,8,0.00
2013-10-3,75.2,64.1,56.1,57.2,40.9,20.8,83,46,24,29.85,29.73,10,2,11,0.16
2013-10-4,62.2,59.5,57.4,61.7,57.6,53.2,98,94,78,29.93,29.76,11,2,13,0.43
2013-10-5,71.4,64.1,58.5,68.7,61.9,41.7,98,93,48,29.85,29.58,13,3,14,0.16
2013-10-6,61.5,53.5,46.6,45.3,25.8,15.6,59,36,19,29.61,29.52,10,2,11,0.00
2013-10-7,66.0,52.3,44.8,43.3,28.3,15.8,82,44,18,29.96,29.55,17,3,17,0.05
2013-10-8,75.0,57.3,42.4,40.8,27.9,20.1,74,38,16,30.05,29.93,11,2,15,0.00
2013-10-9,75.4,58.8,48.4,37.8,27.4,19.0,60,33,15,30.11,30.02,10,2,12,0.00
2013-10-10,76.8,58.4,44.6,49.3,30.7,20.3,86,41,15,30.05,29.93,9,2,10,0.00
2013-10-11,76.6,61.1,51.3,49.5,34.5,26.4,79,42,18,29.96,29.79,17,3,17,0.00
2013-10-12,69.3,60.2,47.1,54.6,31.5,15.2,82,37,17,30.05,29.76,15,4,16,0.43
2013-10-13,60.4,48.3,38.8,29.8,19.2,11.9,61,33,19,30.29,30.05,15,2,16,0.00
2013-10-14,65.3,47.2,35.4,38.4,22.4,16.6,67,41,20,30.32,30.05,13,2,13,0.00
2013-10-15,57.6,51.7,41.7,57.0,39.9,22.5,98,66,35,30.05,29.58,14,4,15,0.32
2013-10-16,51.6,48.8,46.4,47.8,38.9,26.6,93,70,45,29.82,29.61,11,3,11,0.00
2013-10-17,54.7,46.4,41.0,34.9,22.6,14.8,70,41,23,29.82,29.70,11,2,12,0.00
2013-10-18,48.4,43.6,38.8,29.1,23.5,18.0,54,45,38,29.82,29.64,15,3,15,0.00
2013-10-19,52.7,41.4,34.3,34.5,22.2,11.0,78,49,21,29.79,29.61,15,2,16,0.00
2013-10-20,46.6,40.7,33.8,43.3,33.9,21.9,98,79,38,29.76,29.58,13,2,13,0.11
2013-10-21,46.6,37.3,30.6,30.3,11.5,1.7,57,35,24,29.82,29.61,15,5,15,0.00
2013-10-22,46.2,35.7,27.5,13.7,8.2,3.4,50,32,22,29.85,29.79,11,4,13,0.00
2013-10-23,42.3,34.3,26.6,12.7,8.0,3.8,44,33,23,29.88,29.82,12,3,14,0.00
2013-10-24,41.5,35.1,29.5,10.9,8.0,4.7,39,32,23,30.14,29.88,15,5,20,0.00
2013-10-25,49.5,39.8,28.9,14.3,10.5,6.9,51,31,21,30.20,29.73,24,6,28,0.00
2013-10-26,48.7,44.8,39.7,16.4,11.0,8.1,34,25,21,29.93,29.64,26,7,27,0.00
2013-10-27,54.5,41.6,30.2,14.5,10.5,6.1,45,28,20,29.93,29.76,20,4,20,0.00
2013-10-28,43.0,38.4,34.7,17.5,11.0,7.2,44,32,28,30.32,29.93,15,5,16,0.00
2013-10-29,55.6,41.6,33.8,30.6,16.7,6.9,69,37,25,30.29,30.02,10,2,11,0.00
2013-10-30,54.9,48.4,38.1,48.2,40.1,30.9,88,74,49,30.02,29.64,11,2,14,0.00
2013-10-31,60.3,53.1,41.9,59.7,51.3,38.6,98,94,82,29.64,29.11,14,2,14,1.24